{"data":{"norad_id":57368,"epoch":"2026-05-24T12:08:36.111264Z","epoch_age_seconds":114160,"freshness":"FRESH","line1":"1 57368U 23099AS  26144.50597351  .00000152  00000+0  15043-4 0  9998","line2":"2 57368  43.0021 173.5685 0001099 272.1369  87.9357 15.27574306157793","mean_motion":15.27574306,"eccentricity":0.0001099,"inclination_deg":43.0021,"raan_deg":173.5685,"arg_perigee_deg":272.1369,"mean_anomaly_deg":87.9357,"bstar":1.5043e-5,"rev_number":15779,"period_min":94.267100090907,"perigee_km":482.31209975128,"apogee_km":483.82019220276,"semimajor_km":6861.203145977,"source":"CELESTRAK","updated_at":"2026-05-25T13:38:18.294315Z"}}